Location: Bailen
(14.1842°N, 120.7958°E)
Time: 18:13:21
(UTC+00:00)

Sich 1 - Pass Details

Date: 12 January 2026
Orbit: 572 x 598 km, 82.5° (Epoch: 17 February)

Event Time Altitude Azimuth Distance (km) Brightness Sun altitude
Rises 21:44:42 0° 206° (SSW) 2,822 6.4 -9.8°
Reaches altitude 10° 21:47:11 10° 219° (SW) 1,917 5.4 -9.3°
Maximum altitude 21:50:43 26° 276° (W) 1,176 3.9 -8.5°
Drops below altitude 10° 21:54:15 10° 333° (NNW) 1,906 5.1 -7.7°
Sets 21:56:44 0° 346° (NNW) 2,801 6.1 -7.1°
